This is the latest recevied weather packets stored in our database for station/object KC5DAQ-28. If no packets are shown the sender has not sent any weather packets the latest 1 day(s).
| Time | Temp. | Humidity | Pressure | Rain* | Wind** | Luminosity | Snow |
|---|---|---|---|---|---|---|---|
| 1778079604 | 26.67° C | 85% | 1004.2 hPa | 0 mm | - | 188 W/m² | - |
| 1778079544 | 26.67° C | 86% | 1004.2 hPa | 0 mm | - | 186 W/m² | - |
| 1778079483 | 26.67° C | 86% | 1004.1 hPa | 0 mm | - | 186 W/m² | - |
| 1778079244 | 26.11° C | 86% | 1004 hPa | 0 mm | - | 192 W/m² | - |
| 1778078705 | 26.11° C | 87% | 1004 hPa | 0 mm | - | 202 W/m² | - |
| 1778078463 | 26.11° C | 87% | 1004 hPa | 0 mm | - | 218 W/m² | - |
| 1778078345 | 26.11° C | 87% | 1003.9 hPa | 0 mm | - | 230 W/m² | - |
| 1778078283 | 26.11° C | 87% | 1003.9 hPa | 0 mm | - | 230 W/m² | - |
| 1778078162 | 26.11° C | 88% | 1003.8 hPa | 0 mm | - | 220 W/m² | - |
| 1778077983 | 26.11° C | 87% | 1003.7 hPa | 0 mm | - | 271 W/m² | - |
| 1778077805 | 25.56° C | 88% | 1003.6 hPa | 0 mm | - | 266 W/m² | - |
| 1778077742 | 25.56° C | 88% | 1003.6 hPa | 0 mm | - | 266 W/m² | - |
| 1778077624 | 25.56° C | 88% | 1003.5 hPa | 0 mm | - | 266 W/m² | - |
| 1778077323 | 25.56° C | 88% | 1003.6 hPa | 0 mm | - | 176 W/m² | - |
| 1778077204 | 25.56° C | 88% | 1003.6 hPa | 0 mm | - | 176 W/m² | - |
| 1778077083 | 25.56° C | 88% | 1003.7 hPa | 0 mm | - | 208 W/m² | - |
| 1778076722 | 25.56° C | 88% | 1003.7 hPa | 0 mm | - | 202 W/m² | - |
| 1778075872 | 25.56° C | 90% | 1003.9 hPa | 0 mm | - | 222 W/m² | - |
| 1778075571 | 25.56° C | 90% | 1003.9 hPa | 0 mm | - | 218 W/m² | - |
| 1778075391 | 25° C | 90% | 1003.8 hPa | 0 mm | - | 252 W/m² | - |
| 1778075331 | 25° C | 90% | 1003.8 hPa | 0 mm | - | 229 W/m² | - |
| 1778075270 | 25° C | 90% | 1003.7 hPa | 0 mm | - | 227 W/m² | - |
| 1778075090 | 25° C | 90% | 1003.7 hPa | 0 mm | - | 188 W/m² | - |
| 1778075029 | 25° C | 91% | 1003.8 hPa | 0 mm | - | 188 W/m² | - |
| 1778074850 | 25° C | 91% | 1003.8 hPa | 0 mm | - | 174 W/m² | - |
* Rain latest hour (hover to see other rain measurements)
** Current wind speed in m/s (hover to see current wind gust speed)